Weather History for Elizabethtown, NC

Change the Weather History Date:

Monday, March 11, 2013

  Actual Average (KILM) Record (KILM)
Temperature  
Mean Temperature 54 °F 54 °F  
Max Temperature 68 °F 65 °F 82 °F (1879)
Min Temperature 40 °F 43 °F 27 °F (1960)
Degree Days  
Heating Degree Days 11 12  
Month to date heating degree days 141  
Since 1 July heating degree days 2070  
Cooling Degree Days 0 0  
Month to date cooling degree days 0  
Year to date cooling degree days 5  
Growing Degree Days 4 (Base 50)    
Moisture  
Dew Point 46 °F    
Average Humidity 71    
Maximum Humidity 98    
Minimum Humidity 50    
Precipitation  
Precipitation 0.00 in 0.14 in 1.84 in (1962)
Month to date precipitation 1.54  
Year to date precipitation 8.92  
Snow  
Snow 0.00 in 0.00 in 4.40 in (1960)
Month to date snowfall 0.0  
Since 1 July snowfall 1.5  
Snow Depth -    
Sea Level Pressure  
Sea Level Pressure 30.11 in    
Wind  
Wind Speed 4 mph (SE)    
Max Wind Speed 15 mph    
Max Gust Speed 22 mph    
Visibility 10 miles    
Events      
T = Trace of Precipitation, MM = Missing Value Source: NWS Daily Summary

Daily Weather History Graph

Daily Weather History Graph

Search for Another Location

Airport:

Trip Planner

Search our weather history database for the weather conditions in past years. The results will help you decide how hot, cold, wet, or windy it might be!

Date:

Astronomy

Mar. 11, 2013 Rise Set
Actual Time 7:30 AM EDT 7:18 PM EDT
Civil Twilight 7:04 AM EDT 7:44 PM EDT
Nautical Twilight 6:35 AM EDT 8:13 PM EDT
Astronomical Twilight 6:06 AM EDT 8:42 PM EDT
Moon 7:03 AM EDT (3/11) 7:26 PM EDT (3/11)
Length of Visible Light 12h 39m
Length of Day
11h 48m
Waning Crescent, 0% of the Moon is Illuminated
Mar 11
Waning Crescent
Mar 11
New
Mar 19
First Quarter
Mar 27
Full
Apr 3
Last Quarter

Hourly Weather History & Observations

Time (EDT) Temp. Windchill Dew Point Humidity Pressure Visibility Wind Dir Wind Speed Gust Speed Precip Events Conditions
12:15 AM 44.6 °F - 26.8 °F 50% 30.25 in 10.0 mi Calm Calm - N/A   Clear
12:35 AM 43.5 °F 41.9 °F 28.0 °F 54% 30.24 in 10.0 mi ESE 3.5 mph - N/A   Clear
12:55 AM 43.2 °F - 28.9 °F 57% 30.24 in 10.0 mi Calm Calm - N/A   Clear
1:15 AM 44.1 °F - 29.5 °F 57% 30.24 in 10.0 mi Calm Calm - N/A   Clear
1:35 AM 42.8 °F - 30.9 °F 63% 30.23 in 10.0 mi Calm Calm - N/A   Clear
1:55 AM 42.1 °F - 31.1 °F 65% 30.24 in 10.0 mi Calm Calm - N/A   Clear
2:15 AM 41.7 °F - 32.2 °F 69% 30.23 in 10.0 mi Calm Calm - N/A   Scattered Clouds
2:35 AM 43.2 °F - 36.0 °F 76% 30.23 in 10.0 mi Calm Calm - N/A   Scattered Clouds
2:55 AM 42.1 °F - 35.1 °F 76% 30.22 in 10.0 mi Calm Calm - N/A   Clear
3:15 AM 41.7 °F - 34.5 °F 76% 30.22 in 10.0 mi Calm Calm - N/A   Clear
3:35 AM 41.5 °F - 35.8 °F 80% 30.21 in 10.0 mi Calm Calm - N/A   Scattered Clouds
3:55 AM 41.5 °F - 36.3 °F 82% 30.21 in 10.0 mi Calm Calm - N/A   Clear
4:15 AM 40.5 °F - 34.5 °F 79% 30.19 in 10.0 mi Calm Calm - N/A   Clear
4:35 AM 41.4 °F - 37.2 °F 85% 30.17 in 10.0 mi Calm Calm - N/A   Clear
4:55 AM 41.5 °F - 37.9 °F 87% 30.18 in 10.0 mi Calm Calm - N/A   Scattered Clouds
5:15 AM 40.3 °F - 36.1 °F 85% 30.18 in 10.0 mi Calm Calm - N/A   Scattered Clouds
5:35 AM 40.5 °F - 36.5 °F 86% 30.17 in 10.0 mi Calm Calm - N/A   Scattered Clouds
5:55 AM 40.1 °F - 36.9 °F 88% 30.17 in 10.0 mi Calm Calm - N/A   Scattered Clouds
6:15 AM 40.8 °F - 38.1 °F 90% 30.18 in 10.0 mi Calm Calm - N/A   Clear
6:35 AM 41.2 °F - 39.2 °F 93% 30.18 in 7.0 mi Calm Calm - N/A   Clear
6:55 AM 41.9 °F - 40.5 °F 95% 30.18 in 7.0 mi Calm Calm - N/A   Scattered Clouds
7:15 AM 42.1 °F - 41.2 °F 97% 30.17 in 7.0 mi Calm Calm - N/A   Scattered Clouds
7:35 AM 42.4 °F - 41.9 °F 98% 30.17 in 7.0 mi Calm Calm - N/A   Clear
7:55 AM 42.8 °F - 42.1 °F 97% 30.17 in 5.0 mi Calm Calm - N/A   Clear
8:15 AM 43.3 °F - 42.8 °F 98% 30.17 in 5.0 mi Calm Calm - N/A   Clear
8:35 AM 45.0 °F - 44.4 °F 98% 30.17 in 7.0 mi Calm Calm - N/A   Clear
8:55 AM 46.9 °F - 46.0 °F 97% 30.17 in 7.0 mi ESE 3.5 mph - N/A   Clear
9:15 AM 49.6 °F - 47.1 °F 91% 30.17 in 7.0 mi ESE 3.5 mph - N/A   Clear
9:35 AM 53.4 °F - 48.2 °F 82% 30.17 in 7.0 mi ESE 3.5 mph - N/A   Mostly Cloudy
9:55 AM 54.7 °F - 48.0 °F 78% 30.16 in 10.0 mi East 3.5 mph - N/A   Overcast
10:15 AM 57.6 °F - 48.7 °F 72% 30.15 in 10.0 mi ESE 5.8 mph - N/A   Mostly Cloudy
10:35 AM 60.1 °F - 49.3 °F 67% 30.15 in 10.0 mi ESE 5.8 mph - N/A   Clear
10:55 AM 62.2 °F - 50.2 °F 65% 30.14 in 10.0 mi ESE 4.6 mph - N/A   Clear
11:15 AM 63.9 °F - 50.4 °F 61% 30.14 in 10.0 mi ESE 5.8 mph - N/A   Clear
11:35 AM 65.7 °F - 50.7 °F 58% 30.14 in 10.0 mi SE 9.2 mph - N/A   Clear
11:55 AM 66.9 °F - 50.4 °F 55% 30.13 in 10.0 mi SE 9.2 mph 16.1 mph N/A   Scattered Clouds
12:15 PM 67.5 °F - 50.0 °F 53% 30.13 in 10.0 mi South 10.4 mph 17.3 mph N/A   Overcast
12:35 PM 68.7 °F - 50.0 °F 51% 30.12 in 10.0 mi ESE 8.1 mph 17.3 mph N/A   Overcast
12:55 PM 68.5 °F - 50.5 °F 53% 30.12 in 10.0 mi SE 11.5 mph - N/A   Overcast
1:15 PM 68.0 °F - 50.7 °F 54% 30.11 in 10.0 mi SSE 12.7 mph 16.1 mph N/A   Overcast
1:35 PM 68.0 °F - 51.3 °F 55% 30.11 in 10.0 mi SE 12.7 mph - N/A   Overcast
1:55 PM 68.9 °F - 52.0 °F 55% 30.10 in 10.0 mi SSE 12.7 mph 17.3 mph N/A   Overcast
2:15 PM 68.0 °F - 52.3 °F 57% 30.09 in 10.0 mi SE 12.7 mph 19.6 mph N/A   Overcast
2:35 PM 68.0 °F - 51.8 °F 56% 30.08 in 10.0 mi SSE 11.5 mph 16.1 mph N/A   Overcast
2:55 PM 67.1 °F - 51.8 °F 58% 30.08 in 10.0 mi SSE 13.8 mph 21.9 mph N/A   Overcast
3:15 PM 66.4 °F - 52.0 °F 60% 30.06 in 10.0 mi SSE 12.7 mph - N/A   Overcast
3:35 PM 67.3 °F - 52.0 °F 58% 30.06 in 10.0 mi SSE 11.5 mph 18.4 mph N/A   Overcast
3:55 PM 68.0 °F - 52.7 °F 58% 30.05 in 10.0 mi SSE 12.7 mph 18.4 mph N/A   Overcast
4:15 PM 68.0 °F - 53.1 °F 59% 30.04 in 10.0 mi SE 11.5 mph 17.3 mph N/A   Overcast
4:35 PM 67.6 °F - 54.0 °F 61% 30.03 in 10.0 mi SE 15.0 mph 19.6 mph N/A   Overcast
4:55 PM 67.6 °F - 53.8 °F 61% 30.02 in 10.0 mi SSE 12.7 mph 19.6 mph N/A   Overcast
5:15 PM 67.1 °F - 52.7 °F 60% 30.01 in 10.0 mi SSE 13.8 mph 20.7 mph N/A   Overcast
5:35 PM 66.9 °F - 52.7 °F 60% 30.02 in 10.0 mi SSE 15.0 mph 20.7 mph N/A   Overcast
5:55 PM 66.2 °F - 53.1 °F 63% 30.04 in 10.0 mi South 9.2 mph - N/A   Overcast
6:15 PM 66.4 °F - 52.2 °F 60% 30.03 in 10.0 mi South 9.2 mph 17.3 mph N/A   Overcast
6:35 PM 66.2 °F - 52.3 °F 61% 30.02 in 10.0 mi SSE 9.2 mph - N/A   Overcast
6:55 PM 66.2 °F - 52.9 °F 62% 30.01 in 10.0 mi SSE 10.4 mph - N/A   Overcast
7:15 PM 65.3 °F - 52.7 °F 64% 30.02 in 10.0 mi SSE 5.8 mph - N/A   Overcast
7:35 PM 64.8 °F - 52.3 °F 64% 30.02 in 10.0 mi SSE 5.8 mph - N/A   Overcast
7:55 PM 64.4 °F - 52.2 °F 64% 30.00 in 10.0 mi SE 8.1 mph - N/A   Overcast
8:15 PM 63.5 °F - 52.3 °F 67% 30.01 in 10.0 mi SE 5.8 mph - N/A   Scattered Clouds
8:35 PM 62.8 °F - 52.9 °F 70% 30.00 in 10.0 mi SE 8.1 mph - N/A   Scattered Clouds
8:55 PM 62.6 °F - 53.8 °F 73% 30.00 in 10.0 mi SE 6.9 mph - N/A   Clear
9:15 PM 62.1 °F - 54.1 °F 75% 29.99 in 10.0 mi SE 9.2 mph - N/A   Scattered Clouds
9:35 PM 62.8 °F - 54.9 °F 75% 29.97 in 10.0 mi SE 9.2 mph - N/A   Scattered Clouds
9:55 PM 61.9 °F - 54.5 °F 77% 29.97 in 10.0 mi SE 5.8 mph - N/A   Scattered Clouds
10:15 PM 61.2 °F - 54.1 °F 78% 29.99 in 10.0 mi SSE 4.6 mph - N/A   Clear
10:35 PM 61.0 °F - 54.5 °F 79% 29.98 in 10.0 mi SE 5.8 mph - N/A   Clear
10:55 PM 61.0 °F - 54.5 °F 79% 29.97 in 10.0 mi SE 4.6 mph - N/A   Clear
11:15 PM 60.3 °F - 54.5 °F 81% 29.97 in 10.0 mi SE 3.5 mph - N/A   Mostly Cloudy
11:35 PM 60.8 °F - 54.7 °F 80% 29.97 in 10.0 mi SE 3.5 mph - N/A   Overcast
11:55 PM 60.8 °F - 54.7 °F 80% 29.96 in 10.0 mi SE 4.6 mph - N/A   Overcast